TimeIST,TemperatureF,Dew PointF,Humidity,Sea Level PressureIn,VisibilityMPH,Wind Direction,Wind SpeedMPH,Gust SpeedMPH,PrecipitationIn,Events,Conditions,WindDirDegrees,DateUTC
12:50 AM,71.6,60.8,69,29.89,-9999.0,East,3.5,-,N/A,,Clear,90,2012-10-18 22:50:00
1:50 AM,71.6,59.0,64,29.89,-9999.0,Variable,2.3,-,N/A,,Clear,0,2012-10-18 23:50:00
2:00 AM,71,59,56,29.89,6,,2.3,,,,,,2012-10-19 00:00:00
2:50 AM,69.8,55.4,60,29.89,-9999.0,East,1.2,-,N/A,,Clear,100,2012-10-19 00:50:00
3:50 AM,69.8,53.6,56,29.89,-9999.0,Calm,Calm,-,N/A,,Clear,0,2012-10-19 01:50:00
4:33 AM,69.8,51.8,53,29.89,6.2,ENE,3.5,-,N/A,,Mostly Cloudy,60,2012-10-19 02:33:00
4:35 AM,69.8,51.8,53,29.89,6.2,ENE,3.5,-,N/A,,Mostly Cloudy,60,2012-10-19 02:35:00
4:50 AM,68.0,51.8,56,29.89,6.2,NE,2.3,-,N/A,,Mostly Cloudy,40,2012-10-19 02:50:00
5:26 AM,68.0,51.8,56,29.89,6.2,ENE,2.3,-,N/A,,Scattered Clouds,70,2012-10-19 03:26:00
5:28 AM,68.0,51.8,56,29.89,6.2,ENE,2.3,-,N/A,,Scattered Clouds,70,2012-10-19 03:28:00
5:50 AM,69.8,51.8,53,29.89,6.2,Variable,1.2,-,N/A,,Partly Cloudy,0,2012-10-19 03:50:00
6:50 AM,71.6,51.8,50,29.89,-9999.0,Calm,Calm,-,N/A,,Clear,0,2012-10-19 04:50:00
7:50 AM,75.2,53.6,47,29.92,-9999.0,SE,3.5,-,N/A,,Clear,140,2012-10-19 05:50:00
8:00 AM,76,54,36,29.91,6,SE,3.5,,,,Clear,140,2012-10-19 06:00:00
8:50 AM,82.4,62.6,51,29.92,-9999.0,Variable,1.2,-,N/A,,Clear,0,2012-10-19 06:50:00
9:50 AM,82.4,68.0,62,29.89,-9999.0,North,2.3,-,N/A,,Clear,350,2012-10-19 07:50:00
10:50 AM,84.2,66.2,55,29.89,-9999.0,WSW,3.5,-,N/A,,Clear,250,2012-10-19 08:50:00
11:50 AM,84.2,68.0,58,29.86,-9999.0,WNW,6.9,-,N/A,,Clear,290,2012-10-19 09:50:00
12:50 PM,84.2,68.0,58,29.86,-9999.0,WNW,9.2,-,N/A,,Clear,290,2012-10-19 10:50:00
1:50 PM,84.2,68.0,58,29.83,-9999.0,West,9.2,-,N/A,,Clear,280,2012-10-19 11:50:00
2:00 PM,85,68,48,29.85,6,West,9.2,,,,Scattered Clouds,280,2012-10-19 12:00:00
2:50 PM,84.2,64.4,51,29.83,-9999.0,WNW,8.1,-,N/A,,Clear,300,2012-10-19 12:50:00
3:50 PM,84.2,68.0,58,29.83,-9999.0,NW,8.1,-,N/A,,Clear,320,2012-10-19 13:50:00
4:50 PM,80.6,66.2,61,29.83,-9999.0,NW,6.9,-,N/A,,Clear,320,2012-10-19 14:50:00
5:50 PM,78.8,68.0,69,29.86,-9999.0,NW,4.6,-,N/A,,Clear,320,2012-10-19 15:50:00
6:50 PM,78.8,69.8,74,29.86,-9999.0,NNW,3.5,-,N/A,,Clear,330,2012-10-19 16:50:00
7:50 PM,77.0,69.8,78,29.86,-9999.0,East,2.3,-,N/A,,Clear,80,2012-10-19 17:50:00
8:00 PM,78,70,69,29.88,6,East,2.3,,,,Clear,80,2012-10-19 18:00:00
8:50 PM,75.2,66.2,73,29.89,-9999.0,Variable,1.2,-,N/A,,Clear,0,2012-10-19 18:50:00
9:50 PM,75.2,68.0,78,29.89,-9999.0,East,4.6,-,N/A,,Clear,100,2012-10-19 19:50:00
10:50 PM,71.6,64.4,78,29.86,-9999.0,East,2.3,-,N/A,,Clear,80,2012-10-19 20:50:00
11:50 PM,71.6,64.4,78,29.86,-9999.0,ENE,3.5,-,N/A,,Clear,70,2012-10-19 21:50:00